Date String (YYYY-MM-DD hh:mm:ss) UTC,Instrument flags,Ambient pressure (hPa),Sample flow (lpm),Bypass flow (lpm),Sample temperature (°C),Ambient temperature (°C),ASC tube jacket temperature (°C),LED temperature (°C),Box temperature (°C),Sample RH (%),Span deviation,Mass concentration (μg/m³),Mass concentration (μg/m³),Mass concentration (μg/m³)
DateTimeUTC,F1_M11,P_M11,Q1_M11,Q2_M11,T1_M11,T2_M11,T3_M11,T4_M11,T5_M11,U1_M11,ZSPAN_M11,X0_M11,X2_M11,X1_M11
2023-03-12 15:00:00,,0825.4,4.96,0.00,22.8,21.4,00.0,31.5,24.5,12.9,0000.0,0008.67,0004.92,0004.42
2023-03-12 15:01:00,,0825.4,5.00,0.00,22.8,21.3,00.0,31.5,24.5,12.9,0000.0,0008.98,0004.93,0004.44
2023-03-12 15:02:00,,0825.4,5.00,0.00,22.8,21.2,00.0,31.5,24.4,12.9,-000.3,0009.07,0004.99,0004.48
2023-03-12 15:03:00,,0825.4,4.99,0.00,22.7,21.1,00.0,31.5,24.4,12.9,-001.3,0009.13,0005.01,0004.51
2023-03-12 15:04:00,,0825.4,5.00,0.00,22.7,21.0,00.0,31.5,24.4,13.0,-001.5,0009.16,0005.03,0004.55
2023-03-12 15:05:00,,0825.4,5.00,0.00,22.7,20.9,00.0,31.5,24.4,13.0,-001.0,0009.21,0005.07,0004.56
2023-03-12 15:06:00,,0825.4,4.99,0.00,22.7,20.8,00.0,31.5,24.3,13.0,-001.1,0009.20,0005.05,0004.54
2023-03-12 15:07:00,,0825.4,4.99,0.00,22.6,20.8,00.0,31.4,24.2,13.0,-000.6,0009.14,0005.02,0004.53
2023-03-12 15:08:00,,0825.4,5.00,0.00,22.6,21.0,00.0,31.4,24.2,13.1,-000.0,0009.67,0004.99,0004.52
2023-03-12 15:09:00,,0825.5,5.01,0.00,22.7,22.0,00.0,31.4,24.5,13.0,0000.2,0009.51,0004.94,0004.51
2023-03-12 15:10:00,,0825.4,5.00,0.00,22.8,23.1,00.0,31.4,24.8,12.9,-000.0,0009.32,0004.88,0004.49
2023-03-12 15:11:00,,0825.4,4.99,0.00,22.9,23.1,00.0,31.4,24.8,12.7,0000.1,0009.11,0004.84,0004.46
2023-03-12 15:12:00,,0825.4,5.00,0.00,22.9,22.6,00.0,31.5,24.7,12.7,0000.3,0008.46,0004.83,0004.45
2023-03-12 15:13:00,,0825.4,5.00,0.00,22.9,22.2,00.0,31.5,24.6,12.7,0000.4,0008.32,0004.78,0004.41
2023-03-12 15:14:00,,0825.4,5.01,0.00,22.8,21.8,00.0,31.5,24.6,12.6,0000.1,0008.23,0004.74,0004.38
2023-03-12 15:15:00,,0825.4,5.02,0.00,22.8,21.5,00.0,31.5,24.5,12.6,-000.1,0008.17,0004.70,0004.35
2023-03-12 15:16:00,,0825.4,5.01,0.00,22.8,21.3,00.0,31.5,24.4,12.6,-000.5,0008.22,0004.64,0004.32
2023-03-12 15:17:00,,0825.5,4.99,0.00,22.7,21.1,00.0,31.5,24.3,12.6,0000.1,0008.38,0004.65,0004.30
2023-03-12 15:18:00,,0825.5,5.00,0.00,22.7,20.9,00.0,31.5,24.3,12.7,-000.3,0008.44,0004.65,0004.29
2023-03-12 15:19:00,,0825.5,5.01,0.00,22.6,20.8,00.0,31.4,24.2,12.8,-000.5,0007.94,0004.64,0004.28
2023-03-12 15:20:00,,0825.4,5.00,0.00,22.6,20.8,00.0,31.4,24.2,12.8,-000.2,0007.81,0004.65,0004.28
2023-03-12 15:21:00,,0825.4,5.00,0.00,22.6,20.7,00.0,31.4,24.2,12.8,0000.0,0007.79,0004.64,0004.26
2023-03-12 15:22:00,,0825.4,5.00,0.00,22.6,20.7,00.0,31.4,24.2,12.7,0000.0,0007.78,0004.64,0004.25
2023-03-12 15:23:00,,0825.4,5.00,0.00,22.5,20.6,00.0,31.4,24.1,12.8,0000.0,0007.76,0004.62,0004.23
2023-03-12 15:24:00,,0825.4,4.98,0.00,22.5,20.5,00.0,31.4,24.0,12.9,0000.0,0007.79,0004.61,0004.22
2023-03-12 15:25:00,,0825.5,5.00,0.00,22.5,20.8,00.0,31.3,24.1,12.8,-000.0,0007.76,0004.62,0004.23
2023-03-12 15:26:00,,0825.5,5.02,0.00,22.5,21.8,00.0,31.3,24.3,12.8,0001.1,0007.71,0004.64,0004.22
2023-03-12 15:27:00,,0825.5,5.00,0.00,22.7,22.9,00.0,31.3,24.6,12.7,0000.7,0007.66,0004.65,0004.22
2023-03-12 15:28:00,,0825.4,5.01,0.00,22.8,23.1,00.0,31.4,24.6,12.6,-000.0,0007.48,0004.64,0004.22
2023-03-12 15:29:00,,0825.4,5.03,0.00,22.8,22.6,00.0,31.4,24.6,12.6,-000.1,0007.44,0004.63,0004.22
2023-03-12 15:30:00,,0825.5,4.99,0.00,22.8,22.2,00.0,31.4,24.5,12.6,-000.3,0007.49,0004.64,0004.22
2023-03-12 15:31:00,,0825.5,5.00,0.00,22.7,21.9,00.0,31.4,24.5,12.6,-000.4,0007.38,0004.62,0004.22
2023-03-12 15:32:00,,0825.5,5.00,0.00,22.7,21.6,00.0,31.4,24.4,12.6,-000.0,0007.42,0004.62,0004.22
2023-03-12 15:33:00,,0825.4,5.01,0.00,22.7,21.4,00.0,31.4,24.3,12.6,0000.0,0007.50,0004.63,0004.22
2023-03-12 15:34:00,,0825.4,4.99,0.00,22.7,21.2,00.0,31.4,24.3,12.5,0000.0,0007.52,0004.63,0004.21
2023-03-12 15:35:00,,0825.4,5.00,0.00,22.6,21.1,00.0,31.4,24.2,12.6,0000.0,0007.56,0004.65,0004.22
2023-03-12 15:36:00,,0825.4,5.00,0.00,22.6,21.0,00.0,31.4,24.2,12.7,0000.0,0007.69,0004.64,0004.22
2023-03-12 15:37:00,,0825.5,5.00,0.00,22.6,20.9,00.0,31.4,24.2,12.6,0000.0,0007.81,0004.64,0004.23
2023-03-12 15:38:00,,0825.5,4.99,0.00,22.6,20.8,00.0,31.4,24.2,12.5,0000.0,0007.77,0004.63,0004.24
2023-03-12 15:39:00,,0825.5,5.00,0.00,22.5,20.6,00.0,31.3,24.1,12.5,0000.0,0007.71,0004.63,0004.24
2023-03-12 15:40:00,,0825.5,4.99,0.00,22.5,20.5,00.0,31.3,24.1,12.5,0000.0,0007.72,0004.62,0004.24
2023-03-12 15:41:00,,0825.4,5.00,0.00,22.4,20.5,00.0,31.3,24.0,12.5,0000.0,0007.73,0004.61,0004.25
2023-03-12 15:42:00,,0825.5,5.01,0.00,22.5,21.2,00.0,31.3,24.2,12.5,0000.0,0008.54,0004.60,0004.24
2023-03-12 15:43:00,,0825.5,5.00,0.00,22.6,22.4,00.0,31.3,24.4,12.5,0000.0,0009.44,0004.60,0004.25
2023-03-12 15:44:00,,0825.5,5.01,0.00,22.7,23.2,00.0,31.3,24.7,12.5,0000.0,0009.54,0004.66,0004.28
2023-03-12 15:45:00,,0825.5,4.99,0.00,22.7,22.8,00.0,31.3,24.6,12.4,0000.0,0010.12,0004.72,0004.31
2023-03-12 15:46:00,,0825.6,4.99,0.00,22.7,22.4,00.0,31.4,24.6,12.5,0000.0,0010.41,0004.76,0004.35
2023-03-12 15:47:00,,0825.6,5.01,0.00,22.7,22.0,00.0,31.4,24.5,12.5,0000.0,0010.41,0004.83,0004.40
2023-03-12 15:48:00,,0825.6,5.01,0.00,22.7,21.7,00.0,31.4,24.4,12.6,0000.0,0010.83,0004.89,0004.44
2023-03-12 15:49:00,,0825.6,5.00,0.00,22.7,21.4,00.0,31.4,24.3,12.7,0000.0,0011.20,0004.95,0004.49
2023-03-12 15:50:00,,0825.5,5.01,0.00,22.6,21.2,00.0,31.4,24.3,12.6,-000.2,0011.74,0005.00,0004.53
2023-03-12 15:51:00,,0825.5,5.00,0.00,22.6,20.9,00.0,31.4,24.2,12.7,-000.9,0012.16,0005.03,0004.58
2023-03-12 15:52:00,,0825.5,5.01,0.00,22.6,20.8,00.0,31.3,24.1,12.8,-000.8,0012.19,0005.09,0004.63
2023-03-12 15:53:00,,0825.5,5.01,0.00,22.5,20.6,00.0,31.3,24.1,12.9,-000.0,0011.47,0005.17,0004.68
2023-03-12 15:54:00,,0825.5,5.00,0.00,22.5,20.6,00.0,31.3,24.0,12.9,-000.1,0010.92,0005.22,0004.71
2023-03-12 15:55:00,,0825.5,4.99,0.00,22.5,20.5,00.0,31.3,24.1,12.9,0000.0,0010.78,0005.17,0004.71
2023-03-12 15:56:00,,0825.5,5.00,0.00,22.4,20.5,00.0,31.3,24.0,12.9,0000.1,0010.19,0005.13,0004.72
2023-03-12 15:57:00,,0825.5,4.99,0.00,22.4,20.5,00.0,31.3,24.0,12.9,0000.0,0009.91,0005.12,0004.73
2023-03-12 15:58:00,,0825.6,4.99,0.00,22.4,21.3,00.0,31.2,24.1,12.9,-000.0,0009.86,0005.10,0004.73
2023-03-12 15:59:00,,0825.6,5.00,0.00,22.5,22.5,00.0,31.2,24.4,12.9,0000.0,0009.36,0005.07,0004.72
